Time,TemperatureF,DewpointF,PressureIn,WindDirection,WindDirectionDegrees,WindSpeedMPH,WindSpeedGustMPH,Humidity,HourlyPrecipIn,Conditions,Clouds,dailyrainin,SoftwareType,DateUTC
2013-02-07 00:09:00,31.4,28.0,30.18,East,85,11.0,14.0,86,0.00,,,0.00,weatherlink.com 1.10,2013-02-07 05:09:00,
2013-02-07 00:24:00,31.5,28.0,30.18,East,86,7.0,10.0,87,0.00,,,0.00,weatherlink.com 1.10,2013-02-07 05:24:00,
2013-02-07 00:39:00,31.6,28.0,30.18,ESE,105,7.0,10.0,86,0.00,,,0.00,weatherlink.com 1.10,2013-02-07 05:39:00,
2013-02-07 00:54:00,31.8,28.0,30.19,ESE,107,3.0,10.0,86,0.00,,,0.00,weatherlink.com 1.10,2013-02-07 05:54:00,
2013-02-07 01:09:00,31.9,28.0,30.18,ENE,75,2.0,3.0,85,0.00,,,0.00,weatherlink.com 1.10,2013-02-07 06:09:00,
2013-02-07 01:24:00,32.0,28.0,30.18,ENE,78,5.0,7.0,86,0.00,,,0.00,weatherlink.com 1.10,2013-02-07 06:24:00,
2013-02-07 01:39:00,31.9,28.0,30.17,ENE,70,2.0,4.0,86,0.00,,,0.00,weatherlink.com 1.10,2013-02-07 06:39:00,
2013-02-07 01:54:00,31.7,28.0,30.17,ENE,68,0.0,4.0,86,0.00,,,0.00,weatherlink.com 1.10,2013-02-07 06:54:00,
2013-02-07 02:09:00,31.6,28.0,30.17,NE,44,0.0,3.0,86,0.00,,,0.00,weatherlink.com 1.10,2013-02-07 07:09:00,
2013-02-07 02:24:00,31.5,28.0,30.16,ENE,64,3.0,7.0,87,0.00,,,0.00,weatherlink.com 1.10,2013-02-07 07:24:00,
2013-02-07 02:39:00,31.5,28.0,30.16,ENE,78,2.0,7.0,87,0.00,,,0.00,weatherlink.com 1.10,2013-02-07 07:39:00,
2013-02-07 02:54:00,31.3,28.0,30.15,NE,53,1.0,3.0,88,0.00,,,0.00,weatherlink.com 1.10,2013-02-07 07:54:00,
2013-02-07 03:09:00,31.2,28.0,30.15,ENE,70,3.0,5.0,88,0.00,,,0.00,weatherlink.com 1.10,2013-02-07 08:09:00,
2013-02-07 03:24:00,31.0,28.0,30.14,ENE,63,2.0,4.0,88,0.00,,,0.00,weatherlink.com 1.10,2013-02-07 08:24:00,
2013-02-07 03:39:00,30.9,28.0,30.14,ENE,61,2.0,5.0,89,0.00,,,0.00,weatherlink.com 1.10,2013-02-07 08:39:00,
2013-02-07 03:54:00,30.9,28.0,30.14,ENE,68,3.0,7.0,89,0.00,,,0.00,weatherlink.com 1.10,2013-02-07 08:54:00,
2013-02-07 04:09:00,31.1,28.0,30.12,ENE,60,10.0,11.0,88,0.00,,,0.00,weatherlink.com 1.10,2013-02-07 09:09:00,
2013-02-07 04:24:00,31.2,28.0,30.11,NE,43,4.0,7.0,88,0.00,,,0.00,weatherlink.com 1.10,2013-02-07 09:24:00,
2013-02-07 04:39:00,31.2,28.0,30.11,NE,40,1.0,7.0,88,0.00,,,0.00,weatherlink.com 1.10,2013-02-07 09:39:00,
2013-02-07 04:54:00,31.3,28.0,30.12,NE,55,7.0,7.0,88,0.00,,,0.00,weatherlink.com 1.10,2013-02-07 09:54:00,
2013-02-07 05:09:00,31.5,28.0,30.13,ENE,67,2.0,7.0,88,0.00,,,0.00,weatherlink.com 1.10,2013-02-07 10:09:00,
2013-02-07 05:24:00,31.7,29.0,30.13,ENE,76,3.0,8.0,88,0.00,,,0.00,weatherlink.com 1.10,2013-02-07 10:24:00,
2013-02-07 05:39:00,31.8,29.0,30.13,ENE,67,1.0,9.0,88,0.00,,,0.00,weatherlink.com 1.10,2013-02-07 10:39:00,
2013-02-07 05:54:00,31.7,29.0,30.12,East,95,7.0,7.0,88,0.00,,,0.00,weatherlink.com 1.10,2013-02-07 10:54:00,
2013-02-07 06:09:00,31.7,29.0,30.12,NE,55,2.0,7.0,88,0.00,,,0.00,weatherlink.com 1.10,2013-02-07 11:09:00,
2013-02-07 06:24:00,31.7,29.0,30.12,NE,55,1.0,5.0,88,0.00,,,0.00,weatherlink.com 1.10,2013-02-07 11:24:00,
2013-02-07 06:39:00,31.6,29.0,30.11,ENE,61,5.0,6.0,88,0.00,,,0.00,weatherlink.com 1.10,2013-02-07 11:39:00,
2013-02-07 06:54:00,31.6,29.0,30.11,ENE,59,1.0,4.0,88,0.00,,,0.00,weatherlink.com 1.10,2013-02-07 11:54:00,
2013-02-07 07:09:00,31.5,29.0,30.11,NNE,19,0.0,3.0,89,0.00,,,0.00,weatherlink.com 1.10,2013-02-07 12:09:00,
2013-02-07 07:24:00,31.3,29.0,30.10,NNE,14,0.0,2.0,89,0.00,,,0.00,weatherlink.com 1.10,2013-02-07 12:24:00,
2013-02-07 07:39:00,31.2,28.0,30.10,ENE,59,0.0,4.0,89,0.00,,,0.00,weatherlink.com 1.10,2013-02-07 12:39:00,
2013-02-07 07:54:00,31.1,28.0,30.10,NNE,28,0.0,1.0,89,0.00,,,0.00,weatherlink.com 1.10,2013-02-07 12:54:00,
2013-02-07 08:09:00,31.1,28.0,30.09,ENE,57,0.0,2.0,89,0.00,,,0.00,weatherlink.com 1.10,2013-02-07 13:09:00,
2013-02-07 08:24:00,31.1,29.0,30.10,NE,49,0.0,1.0,90,0.00,,,0.00,weatherlink.com 1.10,2013-02-07 13:24:00,
2013-02-07 08:39:00,31.4,29.0,30.09,NE,38,0.0,3.0,91,0.00,,,0.00,weatherlink.com 1.10,2013-02-07 13:39:00,
2013-02-07 08:54:00,32.0,30.0,30.10,NNW,334,0.0,2.0,91,0.00,,,0.00,weatherlink.com 1.10,2013-02-07 13:54:00,
2013-02-07 09:09:00,32.6,30.0,30.11,NNW,334,0.0,1.0,90,0.00,,,0.00,weatherlink.com 1.10,2013-02-07 14:09:00,
2013-02-07 09:25:00,33.7,31.0,30.10,NNW,340,0.0,2.0,89,0.00,,,0.00,weatherlink.com 1.10,2013-02-07 14:25:00,
2013-02-07 09:40:00,34.8,31.0,30.09,NNE,25,0.0,2.0,87,0.00,,,0.00,weatherlink.com 1.10,2013-02-07 14:40:00,
2013-02-07 09:55:00,35.2,31.0,30.09,NNE,19,0.0,3.0,85,0.00,,,0.00,weatherlink.com 1.10,2013-02-07 14:55:00,
2013-02-07 10:10:00,35.6,32.0,30.09,NNW,346,0.0,2.0,86,0.00,,,0.00,weatherlink.com 1.10,2013-02-07 15:10:00,
2013-02-07 10:25:00,36.6,32.0,30.08,NNE,15,0.0,2.0,84,0.00,,,0.00,weatherlink.com 1.10,2013-02-07 15:25:00,
2013-02-07 10:40:00,38.3,33.0,30.07,NNE,28,1.0,3.0,82,0.00,,,0.00,weatherlink.com 1.10,2013-02-07 15:40:00,
2013-02-07 10:55:00,40.0,34.0,30.06,NE,37,1.0,5.0,79,0.00,,,0.00,weatherlink.com 1.10,2013-02-07 15:55:00,
2013-02-07 11:10:00,40.9,34.0,30.06,ENE,61,2.0,4.0,76,0.00,,,0.00,weatherlink.com 1.10,2013-02-07 16:10:00,
2013-02-07 11:25:00,41.9,35.0,30.06,ENE,57,2.0,4.0,75,0.00,,,0.00,weatherlink.com 1.10,2013-02-07 16:25:00,
2013-02-07 11:40:00,42.1,34.0,30.05,ENE,71,7.0,7.0,74,0.00,,,0.00,weatherlink.com 1.10,2013-02-07 16:40:00,
2013-02-07 11:55:00,42.5,35.0,30.05,NNE,12,3.0,5.0,75,0.00,,,0.00,weatherlink.com 1.10,2013-02-07 16:55:00,
2013-02-07 12:10:00,43.1,35.0,30.04,NE,36,0.0,5.0,74,0.00,,,0.00,weatherlink.com 1.10,2013-02-07 17:10:00,
2013-02-07 12:25:00,43.4,36.0,30.02,NNE,32,2.0,5.0,74,0.00,,,0.00,weatherlink.com 1.10,2013-02-07 17:25:00,
2013-02-07 12:40:00,43.4,36.0,30.01,NE,38,3.0,9.0,75,0.00,,,0.00,weatherlink.com 1.10,2013-02-07 17:40:00,
2013-02-07 12:55:00,44.4,37.0,30.00,ENE,63,3.0,8.0,75,0.00,,,0.00,weatherlink.com 1.10,2013-02-07 17:55:00,
2013-02-07 13:10:00,45.0,38.0,29.98,ENE,59,0.0,7.0,75,0.00,,,0.00,weatherlink.com 1.10,2013-02-07 18:10:00,
2013-02-07 13:25:00,46.0,38.0,29.98,NE,36,3.0,8.0,73,0.00,,,0.00,weatherlink.com 1.10,2013-02-07 18:25:00,
2013-02-07 13:40:00,46.8,38.0,29.97,NE,54,3.0,9.0,72,0.00,,,0.00,weatherlink.com 1.10,2013-02-07 18:40:00,
2013-02-07 13:55:00,47.2,39.0,29.96,ENE,59,3.0,10.0,72,0.00,,,0.00,weatherlink.com 1.10,2013-02-07 18:55:00,
2013-02-07 14:10:00,48.0,39.0,29.95,East,79,8.0,9.0,72,0.00,,,0.00,weatherlink.com 1.10,2013-02-07 19:10:00,
2013-02-07 14:26:00,49.0,39.0,29.94,East,84,6.0,9.0,69,0.00,,,0.00,weatherlink.com 1.10,2013-02-07 19:26:00,
2013-02-07 14:41:00,49.5,38.0,29.92,ENE,76,3.0,8.0,66,0.00,,,0.00,weatherlink.com 1.10,2013-02-07 19:41:00,
2013-02-07 14:56:00,49.7,39.0,29.91,ENE,70,4.0,10.0,67,0.00,,,0.00,weatherlink.com 1.10,2013-02-07 19:56:00,
2013-02-07 15:11:00,49.7,38.0,29.91,ENE,76,3.0,10.0,64,0.00,,,0.00,weatherlink.com 1.10,2013-02-07 20:11:00,
2013-02-07 15:26:00,50.0,39.0,29.90,ENE,70,5.0,8.0,65,0.00,,,0.00,weatherlink.com 1.10,2013-02-07 20:26:00,
2013-02-07 15:41:00,49.2,39.0,29.90,ENE,69,3.0,9.0,67,0.00,,,0.00,weatherlink.com 1.10,2013-02-07 20:41:00,
2013-02-07 15:56:00,49.9,39.0,29.89,ENE,63,2.0,8.0,66,0.00,,,0.00,weatherlink.com 1.10,2013-02-07 20:56:00,
2013-02-07 16:11:00,49.9,39.0,29.89,East,86,8.0,8.0,66,0.00,,,0.00,weatherlink.com 1.10,2013-02-07 21:11:00,
2013-02-07 16:26:00,49.6,39.0,29.88,ENE,67,3.0,8.0,66,0.00,,,0.00,weatherlink.com 1.10,2013-02-07 21:26:00,
2013-02-07 16:41:00,49.8,39.0,29.87,NE,56,3.0,9.0,66,0.00,,,0.00,weatherlink.com 1.10,2013-02-07 21:41:00,
2013-02-07 16:56:00,49.9,39.0,29.86,ENE,59,8.0,11.0,66,0.00,,,0.00,weatherlink.com 1.10,2013-02-07 21:56:00,
2013-02-07 17:11:00,48.7,39.0,29.86,East,90,8.0,13.0,68,0.00,,,0.00,weatherlink.com 1.10,2013-02-07 22:11:00,
2013-02-07 17:26:00,48.3,39.0,29.85,ENE,74,4.0,10.0,69,0.00,,,0.00,weatherlink.com 1.10,2013-02-07 22:26:00,
2013-02-07 17:41:00,47.6,38.0,29.85,ENE,68,4.0,9.0,70,0.00,,,0.00,weatherlink.com 1.10,2013-02-07 22:41:00,
2013-02-07 17:56:00,47.1,38.0,29.84,East,82,5.0,10.0,71,0.00,,,0.00,weatherlink.com 1.10,2013-02-07 22:56:00,
2013-02-07 18:11:00,46.5,38.0,29.83,ENE,69,4.0,8.0,72,0.00,,,0.00,weatherlink.com 1.10,2013-02-07 23:11:00,
2013-02-07 18:26:00,45.5,37.0,29.83,East,81,7.0,8.0,73,0.00,,,0.00,weatherlink.com 1.10,2013-02-07 23:26:00,
2013-02-07 18:41:00,45.2,37.0,29.82,ENE,75,5.0,11.0,74,0.00,,,0.00,weatherlink.com 1.10,2013-02-07 23:41:00,
2013-02-07 18:56:00,45.3,37.0,29.82,ENE,63,9.0,15.0,74,0.00,,,0.00,weatherlink.com 1.10,2013-02-07 23:56:00,
2013-02-07 19:11:00,45.2,38.0,29.82,ENE,69,9.0,13.0,75,0.00,,,0.00,weatherlink.com 1.10,2013-02-08 00:11:00,
2013-02-07 19:26:00,45.2,38.0,29.81,ENE,78,5.0,11.0,75,0.00,,,0.00,weatherlink.com 1.10,2013-02-08 00:26:00,
2013-02-07 19:41:00,45.4,38.0,29.80,East,92,11.0,13.0,75,0.00,,,0.00,weatherlink.com 1.10,2013-02-08 00:41:00,
2013-02-07 19:56:00,45.6,38.0,29.80,East,83,11.0,13.0,75,0.00,,,0.00,weatherlink.com 1.10,2013-02-08 00:56:00,
2013-02-07 20:11:00,45.9,38.0,29.80,ENE,73,9.0,12.0,74,0.00,,,0.00,weatherlink.com 1.10,2013-02-08 01:11:00,
2013-02-07 20:26:00,46.0,39.0,29.80,ESE,107,9.0,11.0,75,0.00,,,0.00,weatherlink.com 1.10,2013-02-08 01:26:00,
2013-02-07 20:41:00,45.5,39.0,29.80,ESE,110,7.0,11.0,77,0.00,,,0.00,weatherlink.com 1.10,2013-02-08 01:41:00,
2013-02-07 20:56:00,44.2,39.0,29.80,SE,131,1.0,8.0,83,0.01,,,0.01,weatherlink.com 1.10,2013-02-08 01:56:00,
2013-02-07 21:11:00,42.6,39.0,29.82,South,173,3.0,9.0,86,0.01,,,0.01,weatherlink.com 1.10,2013-02-08 02:11:00,
2013-02-07 21:26:00,41.0,38.0,29.82,South,177,3.0,5.0,90,0.02,,,0.02,weatherlink.com 1.10,2013-02-08 02:26:00,
2013-02-07 21:41:00,40.4,38.0,29.81,South,177,2.0,2.0,91,0.03,,,0.03,weatherlink.com 1.10,2013-02-08 02:41:00,
2013-02-07 21:56:00,40.3,38.0,29.82,South,177,3.0,4.0,92,0.03,,,0.04,weatherlink.com 1.10,2013-02-08 02:56:00,
2013-02-07 22:11:00,40.2,39.0,29.81,South,185,2.0,4.0,94,0.04,,,0.05,weatherlink.com 1.10,2013-02-08 03:11:00,
2013-02-07 22:26:00,40.2,39.0,29.80,South,180,3.0,4.0,94,0.02,,,0.05,weatherlink.com 1.10,2013-02-08 03:26:00,
2013-02-07 22:41:00,40.3,39.0,29.80,South,187,4.0,7.0,95,0.02,,,0.05,weatherlink.com 1.10,2013-02-08 03:41:00,
2013-02-07 22:56:00,40.2,39.0,29.80,South,186,9.0,11.0,95,0.01,,,0.05,weatherlink.com 1.10,2013-02-08 03:56:00,
2013-02-07 23:11:00,39.8,39.0,29.80,South,181,7.0,10.0,95,0.00,,,0.05,weatherlink.com 1.10,2013-02-08 04:11:00,
2013-02-07 23:26:00,39.3,38.0,29.80,SSW,198,6.0,9.0,96,0.00,,,0.05,weatherlink.com 1.10,2013-02-08 04:26:00,
2013-02-07 23:41:00,38.9,38.0,29.80,SSW,209,7.0,15.0,96,0.00,,,0.05,weatherlink.com 1.10,2013-02-08 04:41:00,
2013-02-07 23:56:00,38.1,37.0,29.81,SSW,213,6.0,10.0,95,0.00,,,0.05,weatherlink.com 1.10,2013-02-08 04:56:00,